Starlink 34293

operational
NORAD ID: 64275 Int'l Des: 2025-120 Owner: SPXS Country: US Constellation: starlink
LEOCIRCULAR

Über Starlink 34293

Beschreibung wird geladen...

Live-Position

3D-Globus wird geladen...

Nächste Überflüge

Höhenverlauf

Altitude vs Time

uPlot chart will show altitude changes over time

Zweizeiliger Elementsatz

1 64275U 25120V 25352.64477692 .00008814 00000-0 30934-3 0 9999
2 64275 53.1584 133.4318 0001064 83.0872 277.0250 15.30201837 31449
Epoch: 18. Dez. 2025 • Age: 36 hours

Aktueller Status

Höhe 477.3 km
Geschwindigkeit 7.63 km/s
Subsatellitenpunkt -7.10°S, 20.18°W
Startdatum 4. Juni 2025
Alter 0.5 years
Typ internet

Technische Details

Klassifizierung Payload
Masse 575.00 kg
Trockenmasse 530.00 kg
Gesamtmasse 575.00 kg
Länge 0.30 m
Durchmesser 4.10 m
Spannweite 29.00 m
Form Box + pan
Hersteller SPXS
Bus-Typ Starlink V2MO
Phasenstatus In Orbit
Besitzer/Staat SPXS/US

Große Konstellationen

Loading constellations...